[[{"header":{"parameterUnit":"m.s-1","parameterCategory":1,"la1":30.2991,"la2":30.254,"lo1":-89.0895,"lo2":-89.0444,"dy":0.0017,"dx":0.0017,"nx":28,"ny":28,"refTime":"2024-12-14T09:00:00:Z","depth":0,"parameterNumber":2,"parameterNumberName":"U-component_of_WINDS"},"data":[0,0,0,0,0,0,0,0,0,0,0,0,0,0,0,0,0,0,0,0,0,0,0,0,0,0,0,0,0,0,0,0,0,0,0,0,0,0,0,0,0,0,0,0,0,0,0,0,0,0,0,0,0,0,0,0,0,0,-5.7085,-5.7085,0,-5.7091,-5.7091,-5.7091,-5.7006,-5.7003,-5.7001,-5.6999,-5.7003,-5.7005,-5.7007,0,0,0,0,0,0,0,0,0,0,0,0,0,-5.6998,-5.7,-5.7084,-5.7085,-5.7085,-5.7091,-5.7091,-5.7091,-5.7006,-5.7003,-5.7,-5.6998,-5.7002,-5.7005,-5.7007,0,0,0,0,0,0,0,0,0,0,0,0,0,-5.7023,-5.7001,-5.7084,-5.7043,-5.704,-5.7091,-5.7091,-5.7091,-5.7007,-5.7003,-5.7,-5.6997,-5.7001,-5.7004,-5.7008,-5.7098,0,0,-5.7018,-5.7019,0,0,0,0,0,0,0,0,-5.7022,-5.7027,-5.7049,-5.7046,-5.7042,-5.7044,-5.7062,-5.7093,-5.7008,-5.7019,-5.6999,-5.6995,-5.7019,-5.7021,-5.7029,-5.7098,-5.7098,-5.7018,-5.702,-5.7022,-5.7023,0,0,0,0,0,0,0,-5.702,-5.7026,-5.7087,-5.705,-5.7045,-5.7024,-5.7024,-5.7067,-5.7038,-5.7018,-5.7012,-5.7014,-5.7016,-5.7026,-5.7029,-5.7098,-5.7018,-5.7021,-5.7023,-5.7025,-5.7242,-5.7245,0,0,0,0,0,0,-5.7025,-5.7025,-5.7087,-5.7087,-5.7023,-5.7028,-5.7028,-5.7047,-5.7038,-5.7033,-5.7017,-5.701,-5.7022,-5.7025,-5.7029,-5.7133,-5.7022,-5.7025,-5.7027,-5.7238,-5.7243,-5.7247,0,0,0,0,0,0,-5.7023,-5.7031,-5.7086,-5.7054,-5.706,-5.7034,-5.7055,-5.7049,-5.7058,-5.7037,-5.7031,-5.7032,-5.702,-5.7024,-5.7082,-5.7132,-5.7026,-5.7029,-5.7234,-5.7239,-5.7245,-5.7344,0,0,0,0,0,0,-5.7021,-5.7031,-5.7065,-5.7056,-5.7062,-5.714,-5.7058,-5.7051,-5.7065,-5.7056,-5.705,-5.7045,-5.7017,-5.7077,-5.7085,-5.7135,-5.7032,-5.7229,-5.7236,-5.7243,-5.7336,-5.7352,-5.7366,0,0,0,0,0,-5.7018,-5.7092,-5.7067,-5.7075,-5.7104,-5.7143,-5.7146,-5.7113,-5.7069,-5.7103,-5.709,-5.7046,-5.7126,-5.7084,-5.7092,-5.7144,-5.7226,-5.7234,-5.7242,-5.7329,-5.7349,-5.7366,0,0,0,0,0,0,-5.7105,-5.709,-5.7062,-5.7135,-5.7141,-5.7128,-5.717,-5.7135,-5.7153,-5.7143,-5.7101,-5.71,-5.7165,-5.716,-5.7113,-5.7231,-5.7168,-5.7179,-5.7231,-5.725,-5.7265,-5.7264,-5.7035,0,0,0,0,0,-5.7134,-5.7167,-5.7151,-5.7217,-5.7222,-5.7196,-5.7211,-5.7186,-5.719,-5.7192,-5.7182,-5.7187,-5.7214,-5.7232,-5.7255,-5.7336,-5.7333,-5.7376,-5.7391,-5.7404,-5.7413,-5.7455,-5.7474,-5.7274,-5.7274,-5.7274,0,0,-5.7191,-5.7187,-5.721,-5.7235,-5.7236,-5.7272,-5.7198,-5.7238,-5.7264,-5.7197,-5.7251,-5.7245,-5.7248,-5.7318,-5.7348,-5.7316,-5.7468,-5.7414,-5.7425,-5.7427,-5.7466,-5.7485,-5.7502,-5.728,-5.7279,-5.7278,0,0,-5.7314,-5.7314,-5.737,-5.7374,-5.7378,-5.7361,-5.7374,-5.7368,-5.7361,-5.7415,-5.7366,-5.7396,-5.7443,-5.7447,-5.7456,-5.7584,-5.7544,-5.7593,-5.7671,-5.7713,-5.7729,-5.7743,-5.7788,-5.7805,-5.7602,-5.7602,-5.7603,0,-5.7384,-5.7436,-5.7402,-5.7446,-5.7459,-5.7402,-5.7458,-5.7463,-5.7474,-5.7484,-5.7449,-5.7507,-5.7505,-5.7575,-5.7607,-5.7616,-5.763,-5.7592,-5.773,-5.7743,-5.7755,-5.7798,-5.7815,-5.7608,-5.7607,-5.7607,-5.7606,0,-5.7523,-5.756,-5.7604,-5.7618,-5.7636,-5.7686,-5.7659,-5.7681,-5.7655,-5.7641,-5.7697,-5.7694,-5.7716,-5.7731,-5.7705,-5.7798,-5.7778,-5.7737,-5.7672,-5.7781,-5.782,-5.7836,-5.7616,-5.7614,-5.7613,-5.7611,0,0,-5.7697,-5.7695,-5.7711,-5.7718,-5.772,-5.7747,-5.7795,-5.7818,-5.7838,-5.7848,-5.7887,-5.7929,-5.7892,-5.7901,-5.7876,-5.7913,-5.8015,-5.7867,-5.7867,-5.7894,-5.8118,-5.8147,-5.8167,-5.799,-5.7993,-5.7995,-5.8117,0,-5.7816,-5.7898,-5.787,-5.7953,-5.7987,-5.7936,-5.7977,-5.7983,-5.7973,-5.8,-5.7988,-5.8018,-5.7967,-5.7972,-5.8007,-5.7995,-5.8059,-5.7986,-5.8024,-5.8026,-5.8024,-5.8187,-5.8219,-5.8334,-5.8132,-5.8135,-5.8137,0,-5.7965,-5.7984,-5.8071,-5.8069,-5.8082,-5.812,-5.8139,-5.8166,-5.8172,-5.8162,-5.8175,-5.8142,-5.8188,-5.8126,-5.819,-5.8141,-5.8155,-5.8152,-5.8156,-5.8156,-5.8087,-5.8191,-5.8369,-5.8386,-5.8161,-5.8159,-5.8157,0,-5.8083,-5.813,-5.8188,-5.8195,-5.8195,-5.8223,-5.8223,-5.8226,-5.8242,-5.826,-5.827,-5.8292,-5.8304,-5.8322,-5.8296,-5.8253,-5.8363,-5.8298,-5.8355,-5.8356,-5.8379,-5.8377,-5.856,-5.8391,-5.8391,-5.839,-5.839,0,-5.8217,-5.8272,-5.8241,-5.8277,-5.8337,-5.8305,-5.8366,-5.8361,-5.8365,-5.8398,-5.8356,-5.8388,-5.8353,-5.8382,-5.8362,-5.8418,-5.8423,-5.8416,-5.841,-5.8419,-5.842,-5.8426,-5.8417,-5.8395,-5.8394,-5.8393,-5.8392,0,-5.8358,-5.8339,-5.8399,-5.8395,-5.8396,-5.844,-5.8436,-5.8469,-5.8457,-5.85,-5.8508,-5.8489,-5.8521,-5.8498,-5.853,-5.8517,-5.859,-5.8573,-5.8588,-5.8583,-5.864,-5.8635,-5.8832,-5.8856,-5.8674,-5.8675,-5.8677,0,-5.8444,-5.8485,-5.8486,-5.8507,-5.8511,-5.8544,-5.8561,-5.8532,-5.8551,-5.8563,-5.8594,-5.8624,-5.8645,-5.8699,-5.8687,-5.8712,-5.8694,-5.8762,-5.8697,-5.8706,-5.8694,-5.8691,-5.8695,-5.8774,-5.8777,-5.8778,-5.878,0,-5.8598,-5.8588,-5.8614,-5.8639,-5.8661,-5.8679,-5.8692,-5.8711,-5.8682,-5.8706,-5.874,-5.8757,-5.8791,-5.882,-5.884,-5.884,-5.8805,-5.8801,-5.8815,-5.8824,-5.883,-5.8827,-5.8622,-5.8796,-5.8794,-5.8793,-5.8792,-5.8791,-5.8713,-5.8748,-5.8755,-5.8787,-5.8795,-5.8809,-5.884,-5.8834,-5.8861,-5.8887,-5.8869,-5.8909,-5.8915,-5.8939,-5.8945,-5.8975,-5.8947,-5.8968,-5.8973,-5.8978,-5.8986,-5.8828,-5.8979,-5.8978,-5.8978,-5.8977,-5.8977,0,-5.8864,-5.8867,-5.8897,-5.8919,-5.8944,-5.8912,-5.8926,-5.8949,-5.8985,-5.8995,-5.9018,-5.9057,-5.9086,-5.9078,-5.9104,-5.913,-5.9114,-5.9137,-5.9134,-5.9135,-5.9009,-5.8994,-5.9149,-5.9149,-5.9149,-5.9149,-5.9149,-5.9149,-5.8946,-5.9003,-5.8995,-5.9056,-5.9058,-5.9098,-5.9109,-5.9123,-5.913,-5.9176,-5.9201,-5.9196,-5.9199,-5.9225,-5.9251,-5.9247,-5.9258,-5.9287,-5.9278,-5.9161,-5.9144,-5.9127,-5.9112,-5.929,-5.929,-5.94,-5.9401,-5.9402]},{"header":{"parameterUnit":"m.s-1","parameterCategory":1,"la1":30.2991,"la2":30.254,"lo1":-89.0895,"lo2":-89.0444,"dy":0.0017,"dx":0.0017,"nx":28,"ny":28,"refTime":"2024-12-14T09:00:00:Z","depth":0,"parameterNumber":3,"parameterNumberName":"V-component_of_WINDS"},"data":[0,0,0,0,0,0,0,0,0,0,0,0,0,0,0,0,0,0,0,0,0,0,0,0,0,0,0,0,0,0,0,0,0,0,0,0,0,0,0,0,0,0,0,0,0,0,0,0,0,0,0,0,0,0,0,0,0,0,0.6247,0.6247,0,0.626,0.626,0.6261,0.6322,0.6324,0.6325,0.6327,0.6336,0.6335,0.6334,0,0,0,0,0,0,0,0,0,0,0,0,0,0.627,0.627,0.6247,0.6247,0.6247,0.626,0.626,0.6261,0.6322,0.6324,0.6326,0.6327,0.6336,0.6335,0.6334,0,0,0,0,0,0,0,0,0,0,0,0,0,0.627,0.6269,0.6247,0.6279,0.6282,0.626,0.6261,0.6261,0.6322,0.6324,0.6326,0.6328,0.6337,0.6335,0.6334,0.628,0,0,0.6329,0.6328,0,0,0,0,0,0,0,0,0.627,0.6269,0.6274,0.6277,0.628,0.6292,0.6273,0.6267,0.6321,0.6307,0.6327,0.6329,0.6319,0.6319,0.6317,0.628,0.6281,0.6328,0.6327,0.6327,0.6326,0,0,0,0,0,0,0,0.6269,0.6268,0.6252,0.6274,0.6278,0.6292,0.6295,0.6272,0.63,0.6308,0.6313,0.6314,0.6321,0.6318,0.6318,0.6281,0.6329,0.6327,0.6326,0.6325,0.6203,0.6201,0,0,0,0,0,0,0.6265,0.6268,0.6251,0.6252,0.628,0.629,0.6293,0.6286,0.6301,0.6305,0.6312,0.6316,0.632,0.6319,0.6318,0.6258,0.6327,0.6325,0.6324,0.6205,0.6202,0.62,0,0,0,0,0,0,0.6266,0.6263,0.6251,0.6261,0.6261,0.6287,0.6279,0.6285,0.6282,0.6304,0.6309,0.6304,0.6322,0.632,0.629,0.6259,0.6324,0.6323,0.6208,0.6204,0.6201,0.6136,0,0,0,0,0,0,0.6266,0.6263,0.6244,0.6261,0.626,0.6223,0.6277,0.6284,0.628,0.6286,0.6297,0.6301,0.6323,0.6292,0.6288,0.6258,0.6322,0.6211,0.6206,0.6202,0.6141,0.6131,0.6122,0,0,0,0,0,0.6267,0.6223,0.6242,0.624,0.6236,0.6221,0.6221,0.6248,0.6277,0.6257,0.6271,0.6301,0.6263,0.6288,0.6284,0.6253,0.6213,0.6207,0.6203,0.6145,0.6133,0.6122,0,0,0,0,0,0,0.62,0.6226,0.6247,0.6208,0.6212,0.6232,0.6208,0.6234,0.6229,0.6235,0.6268,0.627,0.6234,0.624,0.6268,0.6203,0.6243,0.6237,0.6201,0.6189,0.618,0.6179,0.632,0,0,0,0,0,0.6181,0.6167,0.619,0.6153,0.6155,0.6181,0.6175,0.6196,0.6201,0.6202,0.6214,0.6217,0.6206,0.6197,0.6188,0.6142,0.6146,0.6119,0.6109,0.6101,0.6096,0.6074,0.6063,0.6183,0.6183,0.6183,0,0,0.6141,0.6153,0.6143,0.614,0.6146,0.6131,0.6181,0.6163,0.6152,0.6199,0.6172,0.618,0.6185,0.6147,0.6131,0.6151,0.6064,0.6095,0.6088,0.6087,0.6067,0.6056,0.6046,0.618,0.618,0.6181,0,0,0.6061,0.6068,0.604,0.6045,0.6054,0.6072,0.6064,0.608,0.6089,0.6062,0.6098,0.6084,0.6064,0.6067,0.6065,0.5988,0.6016,0.5984,0.5935,0.5913,0.5903,0.5895,0.5869,0.5859,0.5978,0.5978,0.5978,0,0.601,0.599,0.6021,0.6001,0.6,0.6044,0.6015,0.6018,0.6022,0.6019,0.6042,0.602,0.6026,0.599,0.5971,0.5968,0.5962,0.5983,0.5902,0.5894,0.5887,0.5863,0.5853,0.5974,0.5975,0.5975,0.5975,0,0.5927,0.5913,0.5888,0.5894,0.5889,0.5865,0.5892,0.5883,0.5905,0.592,0.5893,0.5902,0.5897,0.589,0.5909,0.5857,0.587,0.5897,0.5938,0.5871,0.5849,0.584,0.5969,0.597,0.5971,0.5972,0,0,0.5805,0.583,0.5821,0.5825,0.5838,0.5827,0.5804,0.5801,0.5794,0.5795,0.5777,0.576,0.5786,0.5784,0.5805,0.5785,0.5726,0.5815,0.5816,0.58,0.567,0.5651,0.5639,0.5744,0.5742,0.5741,0.567,0,0.5731,0.5696,0.5724,0.5683,0.5671,0.5713,0.5693,0.5699,0.5713,0.5703,0.5718,0.5706,0.574,0.574,0.5722,0.5737,0.57,0.5742,0.5728,0.5727,0.5727,0.5628,0.5607,0.554,0.5662,0.566,0.5659,0,0.5639,0.5639,0.5598,0.5616,0.5611,0.5594,0.5594,0.5584,0.5591,0.5603,0.5602,0.5628,0.5607,0.5646,0.5618,0.5645,0.5641,0.5647,0.5645,0.5646,0.569,0.5627,0.5519,0.551,0.5645,0.5646,0.5647,0,0.5557,0.5546,0.5521,0.5522,0.5542,0.5529,0.5536,0.5546,0.5542,0.5541,0.554,0.5535,0.5533,0.5529,0.5554,0.558,0.5522,0.5563,0.5532,0.5531,0.5519,0.5519,0.541,0.5513,0.5513,0.5513,0.5513,0,0.5471,0.5445,0.5484,0.5469,0.544,0.5473,0.5443,0.5455,0.5463,0.545,0.5485,0.5472,0.5504,0.5494,0.5513,0.5487,0.5485,0.5494,0.55,0.5492,0.5491,0.5491,0.5496,0.5511,0.5511,0.5512,0.5512,0,0.5375,0.5401,0.5376,0.5397,0.5402,0.538,0.5398,0.5384,0.5401,0.5384,0.5382,0.5407,0.5397,0.5421,0.5414,0.5426,0.5391,0.5403,0.5389,0.5393,0.5361,0.5364,0.5248,0.5235,0.5345,0.5344,0.5343,0,0.532,0.5301,0.5321,0.5316,0.5322,0.5312,0.531,0.5341,0.5336,0.5344,0.5329,0.5323,0.532,0.5302,0.5319,0.5314,0.5327,0.5287,0.5327,0.532,0.5329,0.5331,0.5329,0.5279,0.5278,0.5277,0.5276,0,0.522,0.5234,0.523,0.523,0.5226,0.5227,0.5231,0.5224,0.5257,0.525,0.5242,0.524,0.5234,0.5227,0.5227,0.5233,0.526,0.5263,0.5256,0.5249,0.5242,0.5247,0.5368,0.5266,0.5267,0.5268,0.5268,0.5269,0.5144,0.513,0.5142,0.5137,0.5143,0.5146,0.5135,0.5151,0.5145,0.5144,0.5162,0.515,0.5158,0.5161,0.5164,0.5155,0.5173,0.5162,0.516,0.5157,0.5153,0.5243,0.5155,0.5155,0.5155,0.5156,0.5156,0,0.5047,0.5058,0.5052,0.5058,0.5053,0.508,0.5086,0.508,0.507,0.5076,0.5073,0.5063,0.5058,0.5075,0.5071,0.506,0.5073,0.5059,0.506,0.5062,0.5135,0.5143,0.5049,0.5049,0.5049,0.5049,0.5049,0.5049,0.4997,0.4975,0.499,0.4972,0.4982,0.4973,0.4974,0.4976,0.4982,0.4971,0.4967,0.4979,0.499,0.4987,0.4983,0.4988,0.4986,0.4968,0.4977,0.5046,0.5056,0.5066,0.5074,0.4967,0.4967,0.4905,0.4904,0.4904]}]]